Home   Weather   Babylon   Past weeks

Flag for USA Past Weather in Babylon, New York, USA — Yesterday and Last 2 Weeks

Now
70 °F

Passing clouds.


Feels Like: 74 °F
Forecast: 71 / 82 °F
Wind: 8 mph from Northeast

Location: Republic Airport

Current Time: Aug 30, 2016 at 5:26:02 AM

Latest Report: Aug 30, 2016 at 4:53 AM


Visibility: 10 mi

Pressure: 30.15 "Hg

Humidity: 68%

Dew Point: 59 °F

Location of BabylonLocation

Past Weather in Babylon — Graph

°F

Babylon Temperature Yesterday

Maximum temperature yesterday: 91 °F (at 1:53 PM)
Minimum temperature yesterday: 73 °F (at 5:53 AM)
Average temperature yesterday: 81 °F

High & Low Weather Summary for the Past Weeks

 TemperatureHumidityPressure
High93 °F (Aug 26, 2:53 PM)97% (Aug 20, 3:02 PM)30.32 "Hg (Aug 20, 3:02 PM)
Low60 °F (Aug 23, 2:53 AM)26% (Aug 29, 2:53 PM)29.78 "Hg (Aug 21, 11:53 PM)
Average78 °F68%30.06 "Hg
* Reported Aug 15 3:53 AM — Aug 30 3:53 AM, Babylon, Weather by CustomWeather, © 2016

Note: Actual official high and low records may vary slightly from our data, if they occured in-between our weather recording intervals... More about our weather records

Advertising

Babylon Weather History for the Previous 24 Hours

Scroll right to see more
 ConditionsComfort  
Time TempWeatherWind HumidityBarometerVisibility
3:53 AM
Tue, Aug 30
70 °FClear.8 mph68%30.14 "Hg10 mi
2:53 AM71 °FClear.8 mph66%30.13 "Hg10 mi
1:53 AM71 °FClear.7 mph68%30.14 "Hg10 mi
12:53 AM72 °FClear.8 mph68%30.14 "Hg10 mi
11:53 PM
Mon, Aug 29
74 °FClear.9 mph62%30.13 "Hg10 mi
10:53 PM76 °FClear.9 mph56%30.12 "Hg10 mi
9:53 PM78 °FClear.8 mph50%30.12 "Hg10 mi
8:53 PM79 °FClear.8 mph48%30.11 "Hg10 mi
7:53 PM82 °FSunny.6 mph46%30.08 "Hg10 mi
6:53 PM86 °FSunny.13 mph36%30.07 "Hg10 mi
5:53 PM88 °FSunny.10 mph34%30.06 "Hg10 mi
4:53 PM90 °FSunny.12 mph35%30.05 "Hg10 mi
3:53 PM91 °FSunny.14 mph34%30.05 "Hg10 mi
2:53 PM91 °FSunny.6 mph26%30.06 "Hg10 mi
1:53 PM91 °FSunny.13 mph38%30.07 "Hg10 mi
12:53 PM89 °FSunny.10 mph45%30.09 "Hg10 mi
11:53 AM90 °FSunny.8 mph47%30.09 "Hg10 mi
10:53 AM87 °FSunny.10 mph51%30.10 "Hg10 mi
9:53 AM83 °FSunny.7 mph57%30.11 "Hg10 mi
8:53 AM79 °FScattered clouds.9 mph65%30.11 "Hg10 mi
7:53 AM76 °FScattered clouds.8 mph74%30.11 "Hg10 mi
6:53 AM73 °FPassing clouds.8 mph81%30.11 "Hg10 mi
5:53 AM73 °FClear.7 mph81%30.11 "Hg10 mi
Weather by CustomWeather, © 2016

See weather overviewHow to use our weather pages